FENGYUN 1C DEB

Satellite information

Favourite Embed

Satellite Type and Status

DEBRISIN ORBIT

Key statistics

Satellite FENGYUN 1C DEB at a glance.

Uptime

9556

Days in orbit

Revolutions

≈ 14.3

Per day

Orbit

SSO

Sun Synchronous Orbit

Inclination

98.4

Latest

Satellite identification and parameters

Extended collection of information and parameters for FENGYUN 1C DEB.

Object identification

Identified? True

Debris? True

Object name: FENGYUN 1C DEB

International designator: 1999-025BDJ

Object number (NORAD): 31016

Object ID (CCSDS): 31016

Country: PEOPLES REPUBLIC OF CHINA (PRC)

Current information (Y/N): Y

RCS size: SMALL

Orbital parameters

Period: 100.685 minutes

Inclination: 98.4447 deg

SMA: 7169.182 km

Apoapsis: 872.815 km

Periapsis: 709.278 km

RAAN: 208.0666 deg

Eccentricy: 0.0114056

Argument of periapsis: 24.8642 deg

Mean anomaly: 99.3756 deg

Mean motion: 14.30205321 rev/day

Mean motion (dot): 0.00000546 rev/day2

B* drag term: 0.00021179 1/REarth

Two-line elements (TLE)

Creation date: July 6, 2025, 2:56 p.m.

Reference frame: TEME

Reference center: EARTH

Epoch: July 6, 2025, 2:09 p.m. UTC

TLE line 0: 0 FENGYUN 1C DEB

TLE line 1: 1 31016U 99025BDJ 25187.59023475 .00000546 00000-0 21179-3 0 9992

TLE line 2: 2 31016 98.4447 208.0666 0114056 24.8642 99.3756 14.30205321954491

Live tracking on map

Real-time ground track for satellite FENGYUN 1C DEB.

In-orbit conjunctions

A list of the most updated potential collisions computed for object FENGYUN 1C DEB.

Target Orbit TCA Probability of collision Miss distance Type
SL-8 R/B LEO 2025-05-25 15:07:54 0.0009365893 91.0 (m) ROCKET BODY

Associated space launch

Chinese polar orbiting meteorological satellite

FENGYUN 1C DEB was lifted into orbit during the mission ‘Long March 4B | Feng Yun 1C’, on board a Long March 4B space rocket.

The launch took place on May 10, 1999, 1:33 a.m. from Launch Complex 7.

For more information about the launch, click the button.

Launch to space Long March 4B | Feng Yun 1C
Long March 4B | Feng Yun 1C

Agency: N/A

Status: Launch Successful

Launch date: May 10, 1999, 1:33 a.m. UTC

Rocket: Long March 4B

Launch pad: Launch Complex 7

Location: Taiyuan Satellite Launch Center, People's Republic of China

...

Latest news about this satellite

There are no fresh news available about this satellite. Check back as we update our databases every day.


Newsletter sign-up

Weekly statistics, charts and insights to help you stay on top of the space industry.